TimeCST,TemperatureF,Dew PointF,Humidity,Sea Level PressureIn,VisibilityMPH,Wind Direction,Wind SpeedMPH,Gust SpeedMPH,PrecipitationIn,Events,Conditions,WindDirDegrees,DateUTC
12:15 AM,24.4,17.6,75,30.22,10.0,NW,24.2,31.1,N/A,,Overcast,310,2012-11-23 06:15:00
12:35 AM,23.9,17.1,75,30.22,10.0,NW,28.8,39.1,N/A,,Mostly Cloudy,310,2012-11-23 06:35:00
12:55 AM,23.5,16.5,75,30.24,10.0,NW,25.3,32.2,N/A,,Overcast,320,2012-11-23 06:55:00
1:14 AM,23.0,16.2,75,30.25,10.0,NW,23.0,29.9,N/A,,Overcast,310,2012-11-23 07:14:00
1:35 AM,22.5,14.9,73,30.25,10.0,NW,24.2,35.7,N/A,,Overcast,320,2012-11-23 07:35:00
1:55 AM,21.9,14.5,73,30.26,10.0,NW,21.9,29.9,N/A,,Mostly Cloudy,310,2012-11-23 07:55:00
2:15 AM,21.7,14.5,74,30.27,10.0,NW,21.9,28.8,N/A,,Mostly Cloudy,310,2012-11-23 08:15:00
2:35 AM,21.6,14.5,74,30.28,10.0,NW,26.5,36.8,N/A,,Scattered Clouds,310,2012-11-23 08:35:00
2:54 AM,21.2,14.7,76,30.29,10.0,NW,18.4,24.2,N/A,,Scattered Clouds,310,2012-11-23 08:54:00
3:15 AM,21.2,14.4,75,30.30,10.0,NW,25.3,31.1,N/A,,Mostly Cloudy,310,2012-11-23 09:15:00
3:35 AM,20.7,13.1,73,30.30,10.0,NW,23.0,32.2,N/A,,Scattered Clouds,320,2012-11-23 09:35:00
3:55 AM,20.3,12.7,73,30.32,10.0,NW,25.3,34.5,N/A,,Mostly Cloudy,320,2012-11-23 09:55:00
4:15 AM,19.9,12.9,74,30.33,10.0,NW,24.2,31.1,N/A,,Overcast,320,2012-11-23 10:15:00
4:35 AM,19.4,12.9,76,30.34,10.0,NW,19.6,28.8,N/A,,Overcast,320,2012-11-23 10:35:00
4:55 AM,18.9,12.2,75,30.34,10.0,WNW,21.9,31.1,N/A,,Mostly Cloudy,300,2012-11-23 10:55:00
5:15 AM,19.0,12.9,77,30.34,10.0,WNW,20.7,34.5,N/A,,Overcast,300,2012-11-23 11:15:00
5:34 AM,19.0,12.7,76,30.35,10.0,WNW,21.9,29.9,N/A,,Overcast,300,2012-11-23 11:34:00
5:55 AM,19.0,12.6,76,30.37,10.0,NW,18.4,25.3,N/A,,Overcast,310,2012-11-23 11:55:00
6:15 AM,19.0,12.7,76,30.37,10.0,NW,21.9,25.3,N/A,,Overcast,310,2012-11-23 12:15:00
6:35 AM,18.9,13.1,78,30.38,10.0,NW,16.1,25.3,N/A,,Overcast,310,2012-11-23 12:35:00
6:55 AM,18.9,12.9,78,30.38,10.0,NW,17.3,24.2,N/A,Snow,Light Snow,310,2012-11-23 12:55:00
7:15 AM,18.9,12.7,77,30.39,10.0,NW,20.7,26.5,N/A,Snow,Light Snow,310,2012-11-23 13:15:00
7:35 AM,18.5,12.4,77,30.40,10.0,NW,18.4,23.0,N/A,Snow,Light Snow,310,2012-11-23 13:35:00
7:55 AM,18.5,12.6,78,30.41,10.0,NW,16.1,-,N/A,,Overcast,310,2012-11-23 13:55:00
8:15 AM,18.3,12.2,77,30.41,10.0,NW,20.7,26.5,N/A,,Overcast,320,2012-11-23 14:15:00
8:35 AM,18.5,12.2,76,30.42,10.0,NW,15.0,20.7,N/A,,Overcast,320,2012-11-23 14:35:00
8:55 AM,19.0,12.9,77,30.42,10.0,NW,16.1,21.9,N/A,,Overcast,310,2012-11-23 14:55:00
9:15 AM,19.2,12.6,75,30.43,10.0,NW,17.3,28.8,N/A,,Overcast,320,2012-11-23 15:15:00
9:35 AM,19.4,12.6,75,30.44,10.0,NW,16.1,25.3,N/A,,Overcast,310,2012-11-23 15:35:00
9:55 AM,19.9,12.4,72,30.44,10.0,NW,17.3,25.3,N/A,,Overcast,310,2012-11-23 15:55:00
10:15 AM,20.8,13.3,73,30.45,10.0,NW,16.1,23.0,N/A,,Overcast,310,2012-11-23 16:15:00
10:35 AM,21.2,13.1,71,30.46,10.0,NW,15.0,-,N/A,,Overcast,320,2012-11-23 16:35:00
10:55 AM,21.9,13.8,71,30.46,10.0,NW,16.1,21.9,N/A,,Overcast,320,2012-11-23 16:55:00
11:14 AM,22.3,13.5,69,30.46,10.0,NW,16.1,21.9,N/A,,Overcast,320,2012-11-23 17:14:00
11:35 AM,23.0,13.8,68,30.46,10.0,NW,13.8,21.9,N/A,,Mostly Cloudy,320,2012-11-23 17:35:00
11:55 AM,23.9,13.8,65,30.45,10.0,NW,15.0,20.7,N/A,,Overcast,310,2012-11-23 17:55:00
12:15 PM,23.7,13.1,64,30.45,10.0,NW,12.7,25.3,N/A,,Overcast,310,2012-11-23 18:15:00
12:35 PM,25.0,13.6,62,30.44,10.0,NW,16.1,25.3,N/A,,Mostly Cloudy,310,2012-11-23 18:35:00
12:55 PM,24.8,13.1,61,30.44,10.0,NW,13.8,24.2,N/A,,Scattered Clouds,320,2012-11-23 18:55:00
1:15 PM,24.8,13.1,61,30.43,10.0,NW,16.1,23.0,N/A,,Mostly Cloudy,310,2012-11-23 19:15:00
1:35 PM,24.8,13.6,63,30.43,10.0,WNW,12.7,20.7,N/A,,Mostly Cloudy,300,2012-11-23 19:35:00
1:54 PM,25.7,14.5,63,30.43,10.0,NW,15.0,23.0,N/A,,Mostly Cloudy,310,2012-11-23 19:54:00
2:15 PM,25.5,14.5,63,30.43,10.0,WNW,17.3,-,N/A,,Mostly Cloudy,300,2012-11-23 20:15:00
2:34 PM,25.5,14.4,63,30.43,10.0,NW,10.4,18.4,N/A,,Scattered Clouds,310,2012-11-23 20:34:00
2:55 PM,25.9,14.5,62,30.43,10.0,WNW,11.5,17.3,N/A,,Scattered Clouds,300,2012-11-23 20:55:00
3:15 PM,25.0,13.6,62,30.43,10.0,NW,12.7,16.1,N/A,,Scattered Clouds,310,2012-11-23 21:15:00
3:35 PM,24.4,14.0,65,30.43,10.0,NW,10.4,-,N/A,,Clear,320,2012-11-23 21:35:00
3:54 PM,23.7,14.4,67,30.44,10.0,NW,11.5,-,N/A,,Scattered Clouds,310,2012-11-23 21:54:00
4:15 PM,23.7,14.4,67,30.44,10.0,NW,11.5,-,N/A,,Clear,310,2012-11-23 22:15:00
4:35 PM,22.8,14.0,69,30.43,10.0,NW,8.1,-,N/A,,Clear,320,2012-11-23 22:35:00
4:55 PM,21.7,14.0,72,30.44,10.0,NW,6.9,-,N/A,,Clear,320,2012-11-23 22:55:00
5:15 PM,20.7,13.8,75,30.43,10.0,NW,6.9,-,N/A,,Clear,320,2012-11-23 23:15:00
5:35 PM,19.4,13.6,78,30.43,10.0,NW,6.9,-,N/A,,Clear,320,2012-11-23 23:35:00
5:55 PM,18.5,13.5,81,30.43,10.0,NW,5.8,-,N/A,,Clear,310,2012-11-23 23:55:00
6:15 PM,17.8,13.1,82,30.43,10.0,WNW,3.5,-,N/A,,Clear,290,2012-11-24 00:15:00
6:35 PM,16.3,12.4,84,30.42,10.0,WNW,4.6,-,N/A,,Clear,300,2012-11-24 00:35:00
6:55 PM,15.6,12.2,86,30.42,10.0,West,5.8,-,N/A,,Clear,280,2012-11-24 00:55:00
7:15 PM,14.5,11.3,87,30.42,10.0,NW,3.5,-,N/A,,Clear,310,2012-11-24 01:15:00
7:35 PM,14.5,11.1,86,30.42,10.0,NW,5.8,-,N/A,,Clear,310,2012-11-24 01:35:00
7:55 PM,14.5,10.9,86,30.41,10.0,NW,6.9,-,N/A,,Clear,320,2012-11-24 01:55:00
8:14 PM,14.7,10.8,84,30.41,10.0,NW,5.8,-,N/A,,Clear,320,2012-11-24 02:14:00
8:35 PM,13.3,9.7,86,30.40,10.0,WNW,3.5,-,N/A,,Clear,300,2012-11-24 02:35:00
8:54 PM,12.9,9.7,87,30.41,10.0,WNW,3.5,-,N/A,,Clear,290,2012-11-24 02:54:00
9:15 PM,12.4,9.5,88,30.40,10.0,Calm,Calm,-,N/A,,Clear,0,2012-11-24 03:15:00
9:35 PM,12.6,9.5,88,30.40,10.0,NW,3.5,-,N/A,,Clear,320,2012-11-24 03:35:00
9:55 PM,11.7,9.0,89,30.40,10.0,NW,3.5,-,N/A,,Clear,320,2012-11-24 03:55:00
10:15 PM,12.0,9.3,89,30.40,10.0,West,3.5,-,N/A,,Clear,280,2012-11-24 04:15:00
10:34 PM,11.7,8.8,88,30.39,10.0,Calm,Calm,-,N/A,,Clear,0,2012-11-24 04:34:00
10:55 PM,10.4,8.2,91,30.39,10.0,Calm,Calm,-,N/A,,Clear,0,2012-11-24 04:55:00
11:15 PM,10.0,7.7,90,30.39,10.0,Calm,Calm,-,N/A,,Clear,0,2012-11-24 05:15:00
11:35 PM,9.5,7.5,92,30.38,10.0,Calm,Calm,-,N/A,,Clear,0,2012-11-24 05:35:00
11:54 PM,10.6,8.4,91,30.37,10.0,Calm,Calm,-,N/A,,Clear,0,2012-11-24 05:54:00